Regional Weather Roundup
Issued by NWS

Home | Current Version | Previous Version | Text Only | Print | Product List | Glossary On
Versions: 1 2 3 4 5 6 7 8 9 10 11 12 13 14 15 16 17 18 19 20 21 22 23 24 25 26 27 28 29 30 31 32 33 34 35 36 37 38 39 40 41 42 43 44 45 46 47 48 49 50
000
ASUS43 KDTX 180101
RWRMI
MICHIGAN HOURLY REGIONAL WEATHER ROUNDUP
NATIONAL WEATHER SERVICE DETROIT/PONTIAC MI
900 PM EDT THU APR 17 2014

NOTE: "FAIR" INDICATES FEW OR NO CLOUDS BELOW 12,000 FEET WITH NO
SIGNIFICANT WEATHER AND/OR OBSTRUCTION TO VISIBILITY.

MIZ047>049-052>055-059>063-066>070-074>076-081>083-180200-
SOUTHEAST LOWER MICHIGAN

CITY           SKY/WX    TMP DP  RH WIND       PRES   REMARKS
ADRIAN         PTCLDY    57  32  38 SW3       30.24R
ALMA           MOCLDY    54  35  49 W5        30.21R
ANN ARBOR      PTCLDY    58  29  33 SW5       30.23R
BAD AXE        MOCLDY    53  37  55 S10       30.21S
CARO           MOCLDY    58  32  37 S6        30.19S
DETROIT CITY   PTCLDY    55  35  47 SE9       30.25R
DETROIT        MOCLDY    55  36  48 S3        30.24R
FLINT          MOCLDY    60  30  32 SW7       30.21R
GROSSE ILE     PTCLDY    52  37  58 SE7       30.23R
HILLSDALE      MOCLDY    58  32  38 S5        30.23R
HOWELL         MOCLDY    58  29  34 S6        30.21R

CITY           SKY/WX    TMP DP  RH WIND       PRES   REMARKS
JACKSON        PTCLDY    57  32  38 SW5       30.22R
LAMBERTVILLE   PTCLDY    61  32  33 S5        30.24S
LANSING        CLOUDY    54  36  50 W7        30.22R
LAPEER         FAIR      54  34  46 S7        30.22R
MASON          MOCLDY    57  34  42 SW3       30.21S
MONROE         PTCLDY    57  34  41 S6        30.23R
MT. CLEMENS    CLOUDY    48  35  58 S12       30.24R
PONTIAC        MOCLDY    57  32  38 SE6       30.21R
PORT HOPE        N/A     50  35  56 S7        30.20R
PORT HURON     MOCLDY    50  34  53 SE8       30.25R
TRI CITIES     CLOUDY    57  37  47 W8        30.20R
TROY           PTCLDY    58  32  38 S6        30.24R
SAGINAW HB     CLOUDY    55  36  47 SW7       30.19R
YPSILANTI      PTCLDY    58  31  35 S7        30.23R
$$
MIZ043>046-050>051-056>058-064>065-071>073-077>080-180200-
SOUTHWEST LOWER MICHIGAN

CITY           SKY/WX    TMP DP  RH WIND       PRES   REMARKS
BATTLE CREEK   MOCLDY    56  36  47 W8        30.22R
BENTON HARBOR  CLOUDY    52  36  54 CALM      30.23R
BIG RAPIDS     MOCLDY    48  36  62 NW6       30.20R
COLDWATER      PTCLDY    53  34  48 SW3       30.22R
FREMONT        FAIR      47  36  64 W3        30.21S
HOLLAND        MOCLDY    50  37  61 NW5       30.23R
GRAND RAPIDS   CLOUDY    52  38  58 W6        30.21S
IONIA          FAIR      55  35  48 W6        30.20R
KALAMAZOO      MOCLDY    54  37  52 NW7       30.22R
LUDINGTON      MOCLDY    41  36  83 CALM      30.22R
MARSHALL       PTCLDY    56  34  43 S6        30.21R
MOUNT PLEASANT MOCLDY    54  37  53 SW8       30.20R
MUSKEGON       MOCLDY    46  35  65 NW8       30.23R
SOUTH HAVEN    CLOUDY    50  34  55 CALM      30.23R
$$
MIZ016>042-180200-
NORTHERN LOWER MICHIGAN

CITY           SKY/WX    TMP DP  RH WIND       PRES   REMARKS
ALPENA         MOCLDY    40  31  70 E6        30.19F
BEAVER ISLAND  PTCLDY    34  31  86 SW5       30.23R WCI  30
BELLAIRE       MOCLDY    43  32  65 CALM      30.23R
CADILLAC       MOCLDY    45  36  71 W5        30.20R
CHARLEVOIX     MOCLDY    37  32  80 W3        30.26R
FRANKFORT      CLOUDY    39  33  80 CALM      30.23R
GAYLORD        MOCLDY    42  30  62 NW5       30.20R
GRAYLING       CLOUDY    45  29  53 NW5       30.21R
HARBOR SPRINGS MOCLDY    35  31  83 CALM      30.22R
HOUGHTON LAKE  CLOUDY    49  34  56 W7        30.18S
MANISTEE       CLOUDY    45  36  70 CALM      30.22S
OSCODA         MOCLDY    42  35  73 E3        30.18S
PELLSTON       MOCLDY    38  30  73 CALM      30.22S
ROGERS CITY    CLOUDY    40  32  73 SE7       30.20S
TRAVERSE CITY  CLOUDY    47  35  63 W6        30.21R
$$
MIZ007>008-015-180200-
EASTERN UPPER MICHIGAN

CITY           SKY/WX    TMP DP  RH WIND       PRES   REMARKS
KINROSS        CLOUDY    37  30  75 SE8       30.22S WCI  31
MACKINAC ISLAN PTCLDY    33  31  91 E7        30.22S WCI  27
NEWBERRY       PTCLDY    33  29  87 SW3       30.21R
S. S. MARIE    CLOUDY    38  26  62 SE6       30.22S WCI  33
MUNISING         N/A     38  32  79 CALM      30.22R
$$
MIZ004>006-011>014-085-180200-
CENTRAL UPPER MICHIGAN

CITY           SKY/WX    TMP DP  RH WIND       PRES   REMARKS
MANISTIQUE     MOCLDY    31  30  95 W5        30.23R WCI  27
ESCANABA       CLOUDY    37  30  75 CALM      30.23R
MENOMINEE      CLOUDY    37  32  81 CALM      30.23R
SAWYER-GWINN   CLOUDY    34  32  93 SW3       30.21F
$$
MIZ001>003-009>011-084-180200-
WESTERN UPPER MICHIGAN

CITY           SKY/WX    TMP DP  RH WIND       PRES   REMARKS
IRON MOUNTAIN  CLOUDY    37  32  82 W5        30.21R WCI  33
HOUGHTON       CLOUDY    31  29  92 W7        30.20R FOG     WCI  24
COPPER HARBOR    N/A     34  31  88 VRB3      30.20S
IRONWOOD       CLOUDY    34  27  75 W5        30.22S WCI  30
$$

ABBREVIATIONS USED IN REMARKS
   TC - TEMPERATURE IN CELSIUS
  WCI - WIND CHILL INDEX
   HX - HEAT INDEX
  VSB - VISIBILITY




USA.gov is the U.S. government's official web portal to all federal, state and local government web resources and services.